Regional Weather Roundup
Issued by NWS

Home | Current Version | Previous Version | Text Only | Print | Product List | Glossary On
Versions: 1 2 3 4 5 6 7 8 9 10 11 12 13 14 15 16 17 18 19 20 21 22 23 24 25 26 27 28 29 30 31 32 33 34 35 36 37 38 39 40 41 42 43 44 45 46 47 48 49 50
000
ASUS44 KFWD 231210
RWRTX
NORTH TEXAS HOURLY WEATHER ROUNDUP
NATIONAL WEATHER SERVICE FORT WORTH TX
600 AM CST THU NOV 23 2017

NOTE: "FAIR" INDICATES FEW OR NO CLOUDS BELOW 12,000 FEET WITH NO
SIGNIFICANT WEATHER AND/OR OBSTRUCTIONS TO VISIBILITY.

TXZ118-119-231300-
DALLAS/FORT WORTH METROPLEX

CITY           SKY/WX    TMP DP  RH WIND       PRES   REMARKS
DFW AIRPORT    CLOUDY    38  30  73 SW6       30.17F WCI  33
6HR MIN TEMP:  37; 6HR MAX TEMP:  45;

DALLAS LOVE    CLOUDY    38  32  79 CALM      30.19F
6HR MIN TEMP:  37; 6HR MAX TEMP:  42;

FTW MEACHAM    CLOUDY    38  34  85 CALM      30.19S
6HR MIN TEMP:  37; 6HR MAX TEMP:  42;

DAL-EXECUTIVE  CLOUDY    36  29  75 W3        30.18F HAZE
6HR MIN TEMP:  35; 6HR MAX TEMP:  42;

FTW-ALLIANCE   CLOUDY    32  29  88 CALM      30.18F
6HR MIN TEMP:  28; 6HR MAX TEMP:  34;

FTW-NAS-JRB    CLOUDY    38  26  62 CALM      30.20S
6HR MIN TEMP:  37; 6HR MAX TEMP:  43;

FTW-SPINKS     CLOUDY    31  28  86 CALM      30.21F
6HR MIN TEMP:  29; 6HR MAX TEMP:  34;

ARLINGTON      CLOUDY    30  29  96 CALM      30.19F
6HR MIN TEMP:  29; 6HR MAX TEMP:  34;

GRAND PRAIRIE  CLOUDY    39  29  69 CALM      30.21F
6HR MIN TEMP:  37; 6HR MAX TEMP:  43;

ADDISON        CLEAR     37  30  75 CALM      30.19F
MESQUITE       CLOUDY    33  29  88 CALM      30.20F
6HR MIN TEMP:  31; 6HR MAX TEMP:  38;

LANCASTER      CLOUDY    32  28  86 CALM      30.20F
6HR MIN TEMP:  31; 6HR MAX TEMP:  35;

$$

TXZ091>094-102>105-117-120-121-131>134-231300-
NORTH CENTRAL TEXAS

CITY           SKY/WX    TMP DP  RH WIND       PRES   REMARKS
SHRMAN/DENISON CLOUDY    34  25  69 CALM      30.19F
6HR MIN TEMP:  30; 6HR MAX TEMP:  37;

GAINESVILLE    CLOUDY    30  25  79 CALM      30.19F
6HR MIN TEMP:  30; 6HR MAX TEMP:  32;

BOWIE          CLOUDY    31  26  81 CALM      30.17F
6HR MIN TEMP:  30; 6HR MAX TEMP:  34;

BRIDGEPORT     CLOUDY    29  27  92 CALM      30.20F
6HR MIN TEMP:  29; 6HR MAX TEMP:  32;

DECATUR        CLOUDY    41  19  41 SW6       30.16F WCI  37
6HR MIN TEMP:  40; 6HR MAX TEMP:  46;

DENTON         PTCLDY    31  26  82 CALM      30.18F
6HR MIN TEMP:  28; 6HR MAX TEMP:  34;

MCKINNEY       CLOUDY    31  27  85 CALM      30.19F
6HR MIN TEMP:  29; 6HR MAX TEMP:  35;

BONHAM         CLOUDY    30  24  78 CALM      30.19F
6HR MIN TEMP:  27; 6HR MAX TEMP:  33;

GREENVILLE     CLOUDY    34  32  93 CALM      30.20S
ROCKWALL       CLOUDY    36  31  85 CALM      30.20S
6HR MIN TEMP:  35; 6HR MAX TEMP:  42;

TERRELL        CLOUDY    32  27  81 CALM      30.20F
6HR MIN TEMP:  31; 6HR MAX TEMP:  35;

WAXAHACHIE     CLOUDY    32  28  86 CALM      30.20S
6HR MIN TEMP:  32; 6HR MAX TEMP:  38;

CLEBURNE       HAZE      36  27  69 NW6       30.21S VSB 1   WCI  31
GRANBURY       CLOUDY    31  27  86 CALM      30.22S
6HR MIN TEMP:  30; 6HR MAX TEMP:  34;

$$

TXZ083>090-098>101-113>116-127>130-139>142-154-155-231300-
WESTERN NORTH TEXAS

CITY           SKY/WX    TMP DP  RH WIND       PRES   REMARKS
WICHITA FALLS  CLOUDY    34  22  61 S6        30.15F WCI  29
6HR MIN TEMP:  30; 6HR MAX TEMP:  38;

WF-KICKAPOO    CLOUDY    34  25  69 S3        30.18F
6HR MIN TEMP:  33; 6HR MAX TEMP:  39;

VERNON         CLOUDY    33  21  61 CALM      30.16S
6HR MIN TEMP:  31; 6HR MAX TEMP:  90;

ABILENE        CLEAR     39  24  55 S7        30.18F WCI  34
6HR MIN TEMP:  35; 6HR MAX TEMP:  41;

ABILENE-DYESS  CLOUDY    35  27  70 CALM      30.17F
6HR MIN TEMP:  32; 6HR MAX TEMP:  38;

GRAHAM           N/A     30  28  94 CALM      30.17S
6HR MIN TEMP:  29; 6HR MAX TEMP:  32;

BRECKENRIDGE   CLOUDY    38  24  57 S6        30.18S WCI  34
6HR MIN TEMP:  34; 6HR MAX TEMP:  38;

CISCO          CLOUDY    41  21  45 SW10      30.18F WCI  35
EASTLAND       CLOUDY    27  23  87 CALM      30.19S
6HR MIN TEMP:  26; 6HR MAX TEMP:  29;

RANGER         CLOUDY    38  24  57 SW8       30.18F WCI  32
6HR MIN TEMP:  34; 6HR MAX TEMP:  85;

MINERAL WELLS  CLOUDY    31  26  82 CALM      30.18F
6HR MIN TEMP:  30; 6HR MAX TEMP:  35;

STEPHENVILLE   CLOUDY    35  26  71 CALM      30.21F
6HR MIN TEMP:  33; 6HR MAX TEMP:  36;

COMANCHE       CLOUDY    38  24  57 CALM      30.20R
6HR MIN TEMP:  36; 6HR MAX TEMP:  44;

BROWNWOOD      CLOUDY    28  25  86 CALM      30.21S
COLEMAN        CLOUDY    35  26  70 W5        30.20S WCI  31
6HR MIN TEMP:  33; 6HR MAX TEMP:  38;

$$

TXZ143>147-156>162-174-175-231300-
CENTRAL TEXAS

CITY           SKY/WX    TMP DP  RH WIND       PRES   REMARKS
WACO           CLOUDY    30  27  88 W6        30.21S WCI  24
6HR MIN TEMP:  30; 6HR MAX TEMP:  36;

WACO-MCGREGOR  CLOUDY    32  24  72 SW3       30.21F
6HR MIN TEMP:  30; 6HR MAX TEMP:  37;

HILLSBORO      CLOUDY    34  28  77 CALM      30.20R
6HR MIN TEMP:  32; 6HR MAX TEMP:  38;

CORSICANA      CLOUDY    35  30  82 CALM      30.21S
6HR MIN TEMP:  35; 6HR MAX TEMP:  40;

MEXIA          CLOUDY    34  25  69 W7        30.19S WCI  28
6HR MIN TEMP:  34; 6HR MAX TEMP:  41;

HEARNE         CLOUDY    30  29  96 CALM      30.23S
6HR MIN TEMP:  30; 6HR MAX TEMP:  37;

CAMERON        CLOUDY    36  26  67 W5        30.22S WCI  32
6HR MIN TEMP:  36; 6HR MAX TEMP:  43;

TEMPLE         CLOUDY    31  24  75 N3        30.21F
6HR MIN TEMP:  29; 6HR MAX TEMP:  36;

KILLEEN        CLEAR     39  23  52 NW5       30.19S WCI  35
6HR MIN TEMP:  35; 6HR MAX TEMP:  42;

KILLEEN-SKYLRK CLOUDY    33  26  75 CALM      30.21S
6HR MIN TEMP:  32; 6HR MAX TEMP:  39;

FORT HOOD      CLOUDY    37  24  60 NW3       30.17S
6HR MIN TEMP:  35; 6HR MAX TEMP:  42;

GATESVILLE     CLOUDY    30  25  80 CALM      30.22S
HAMILTON       CLOUDY    38  24  57 W3        30.20S
6HR MIN TEMP:  36; 6HR MAX TEMP:  41;

LAMPASAS       CLOUDY    35  27  72 CALM      30.18S
6HR MIN TEMP:  31; 6HR MAX TEMP:  38;

$$

TXZ095>097-106>112-122>126-135>138-148>153-164>167-231300-
EAST TEXAS

CITY           SKY/WX    TMP DP  RH WIND       PRES   REMARKS
PARIS          CLOUDY    33  27  78 N5        30.20S WCI  29
6HR MIN TEMP:  32; 6HR MAX TEMP:  38;

SULPHUR SPRNGS CLOUDY    34  26  74 CALM      30.22S
6HR MIN TEMP:  33; 6HR MAX TEMP:  41;

MOUNT PLEASANT CLOUDY    30  30  98 NE3       30.22R
6HR MIN TEMP:  28; 6HR MAX TEMP:  37;

GILMER         CLOUDY    31  29  95 MISG      30.20R
6HR MIN TEMP:  30; 6HR MAX TEMP:  37;

MINEOLA        CLOUDY    30  28  93 CALM      30.20R
TYLER          CLOUDY    33  30  88 CALM      30.19S
6HR MIN TEMP:  32; 6HR MAX TEMP:  39;

LONGVIEW       PTCLDY    32  32 100 CALM      30.19S
6HR MIN TEMP:  30; 6HR MAX TEMP:  39;

MARSHALL       PTCLDY    30  29  94 CALM      30.22S
6HR MIN TEMP:  30; 6HR MAX TEMP:  36;

ATHENS         CLOUDY    28  28 100 CALM      30.19F
PALESTINE      CLOUDY    31  30  96 CALM      30.21F
JACKSONVILLE   CLOUDY    39  28  66 CALM      30.19F
HENDERSON      CLOUDY    31  30  96 CALM      30.20S
6HR MIN TEMP:  30; 6HR MAX TEMP:  37;

CENTER         CLOUDY    31  29  94 CALM      30.21R
6HR MIN TEMP:  30; 6HR MAX TEMP:  37;

NACOGDOCHES    PTCLDY    29  27  92 CALM      30.20S
6HR MIN TEMP:  29; 6HR MAX TEMP:  39;

LUFKIN         PTCLDY    34  33  96


USA.gov is the U.S. government's official web portal to all federal, state and local government web resources and services.